Regional Weather Roundup
Issued by NWS

Home | Current Version | Previous Version | Graphics & Text | Print | Product List | Glossary On
Versions: 1 2 3 4 5 6 7 8 9 10 11 12 13 14 15 16 17 18 19 20 21 22 23 24 25 26 27
000
ASUS45 KBOU 250507
RWRCO

WEATHER ROUNDUP FOR COLORADO
NATIONAL WEATHER SERVICE DENVER/BOULDER CO
1100 PM MDT FRI MAR 24 2017

NOTE: "FAIR" INDICATES FEW OR NO CLOUDS BELOW 12000 FEET WITH NO
SIGNIFICANT WEATHER AND/OR OBSTRUCTIONS TO VISIBILITY.

COZ001>005-013-030-031-250600-
...NORTHWEST COLORADO...

CITY           SKY/WX    TMP DP  RH WIND       PRES   REMARKS
CRAIG          FAIR      33  24  69 E3        30.16R
HAYDEN         FAIR      37  19  48 CALM      30.17R
MEEKER         FAIR      33  24  69 N3        30.17R
MOUNT WERNER   NOT AVBL
STEAMBOAT SPGS FAIR      36  25  65 CALM      30.17S
WALDEN         NOT AVBL
$$

COZ006>008-011-250600-
...WEST CENTRAL VALLEYS...

CITY           SKY/WX    TMP DP  RH WIND       PRES   REMARKS
GRAND JUNCTION FAIR      45  28  51 E7        30.13S
MONTROSE       FAIR      42  32  67 SE9       30.20R
EAGLE          FAIR      37  26  64 E8        30.20S
RIFLE          FAIR      41  28  60 CALM      30.16R
DELTA          FAIR      46  27  47 NE8       30.18R
NUCLA          FAIR      43  32  65 E10       30.22S
$$

COZ017>023-064>068-250600-
...SOUTHWEST COLORADO...

CITY           SKY/WX    TMP DP  RH WIND       PRES   REMARKS
DURANGO        FAIR      39  24  55 W6        30.17R
CORTEZ         FAIR      37  28  70 NE9       30.19S
PAGOSA SPRINGS FAIR      37  35  93 CALM      30.21R
TELLURIDE      NOT AVBL
WOLF CREEK PAS FAIR      27  19  74 CALM      30.37S
$$

COZ009-010-012-014-032>034-037-058>063-250600-
...CENTRAL COLORADO...

CITY           SKY/WX    TMP DP  RH WIND       PRES   REMARKS
ASPEN          FAIR      36  27  69 S9        30.20F
BUENA VISTA    FAIR      32  22  66 E3        30.22S
COPPER MTN     FAIR      28  19  69 MISG      30.29F
BERTHOUD PASS  FAIR      18   7  62 N16G31    30.27S WCI   3
COTTONWOOD PAS FAIR      36  18  48 W9G17     30.25S
GUNNISON       FAIR      33  25  72 N6        30.23F WCI  28
KREMMLING      FAIR      34  27  75 CALM      30.21S
LEADVILLE      FAIR      24  17  74 E6        30.24S WCI  17
MONARCH PASS   FOG       23  21  93 SW16      30.41S VSB 1/4 WCI  10
SALIDA         FAIR      35  25  68 CALM      30.28F
SUNLIGHT       FAIR      25  21  86 SW8       30.32S WCI  16
WILKERSON PASS MOCLDY    27  19  74 NW10G21   30.26S WCI  17
$$

COZ069>075-250600-
...SAN LUIS VALLEY/SANGRE DE CRISTO MOUNTAINS...

CITY           SKY/WX    TMP DP  RH WIND       PRES   REMARKS
ALAMOSA        FAIR      31  27  85 CALM      30.20F
LA VETA PASS   NOT AVBL
SAGUACHE       FAIR      36  25  64 NW15      30.22S
$$

COZ035-036-038>040-250600-
...NORTHERN COLORADO FRONT RANGE...

CITY           SKY/WX    TMP DP  RH WIND       PRES   REMARKS
DENVER INTL AP FAIR      33  29  85 S12       30.13F WCI  24
DMNS CITY PARK   N/A     41  33  73 E8        30.13S
AURORA         CLEAR     36  33  87 S9        30.14F
FRONT RANGE AP NOT AVBL
ERIE MUNI ARPT FAIR      36  32  85 CALM      30.13F
BOULDER MUN AP FAIR      37  30  75 N3        30.12F
CENTENNIAL     FAIR      36  31  82 S7        30.13F
BROOMFIELD     NOT AVBL
FORT COLLINS   FAIR      39  29  67 SW6       30.14S
LONGMONT       FAIR      36  29  77 W5        30.15F
$$

COZ041-046-047-076>085-087-088-250600-
...PIKES PEAK/PALMER DIVIDE AND SOUTHERN FOOTHILLS...

CITY           SKY/WX    TMP DP  RH WIND       PRES   REMARKS
COLO. SPRINGS  FAIR      34  28  79 N7        30.17F WCI  28
A. F. ACADEMY  FAIR      29  28  99 NE7       30.16F WCI  21
SCHRIEVER AFB  FAIR      36  28  74 NW7       30.17F
ELLICOTT         N/A    N/A N/A N/A N3        30.15F
FALCON         FAIR      31  28  87 CALM      30.18S
FORT CARSON    NOT AVBL
LIMON          FAIR      32  30  92 W8        30.15S WCI  25
MONUMENT HILL  FAIR      28  27  93 SW7       30.18F WCI  21
TRINIDAD       FAIR      34  30  85 W10       30.18F WCI  26
$$

COZ042>045-048>051-090-091-250600-
...NORTHEAST COLORADO...

CITY           SKY/WX    TMP DP  RH WIND       PRES   REMARKS
GREELEY ARPT   FAIR      36  29  75 E5        30.14F
AKRON          FAIR      34  31  88 W9        30.13R WCI  27
BURLINGTON     FAIR      35  33  92 NW8       30.09F WCI  29
WRAY           NOT AVBL
STERLING       FAIR      36  34  93 W8        30.12R
HOLYOKE        FAIR      37  34  87 NW8       30.11F
FORT MORGAN    FAIR      35  32  88 W5        30.14F WCI  31
$$

COZ086-089-092>099-250600-
...SOUTHEAST COLORADO...

CITY           SKY/WX    TMP DP  RH WIND       PRES   REMARKS
PUEBLO         FAIR      35  31  85 W6        30.15F WCI  30
LA JUNTA       FAIR      39  36  89 W6        30.14S
LAMAR          FAIR      35  31  85 W9        30.12R WCI  28
SPRINGFIELD      N/A     35  33  92 NW18G26   30.10R WCI  24
$$




USA.gov is the U.S. government's official web portal to all federal, state and local government web resources and services.